Miscellaneous Local Product
Issued by NWS North Platte, NE

Home | Current Version | Previous Version | Graphics & Text | Print | Product List | Glossary On
Versions: 1 2 3 4 5 6 7 8 9 10 11 12 13 14 15 16 17 18 19 20 21 22 23 24 25 26 27 28 29 30 31 32 33 34 35 36 37 38 39 40 41 42 43 44 45 46 47 48 49 50
000
AXUS43 KLBF 220810
MISLBF


WESTERN AND NORTH CENTRAL NEBRASKA HOURLY WEATHER ROUNDUP
NATIONAL WEATHER SERVICE NORTH PLATTE NE
300 AM CDT FRI MAY 22 2015

***STATIONS NOT REPORTING VARIABLES SUCH AS SKY/WEATHER OR
PRESSURE ARE PROVIDED BY THE NEBRASKA DEPARTMENT OF
ROADS...RAWS...AND APRS NETWORKS...AND ARE NOT UNDER
NATIONAL WEATHER SERVICE QUALITY CONTROL***

...OBSERVATIONS IN AND NEAR THE EASTERN PANHANDLE OF NEBRASKA...

CITY           SKY/WX    TMP DP  RH WIND       PRES   REMARKS
PINE RIDGE     CLOUDY    53  43  68 SE10      30.11F
CHADRON        CLOUDY    53  44  71 SE13      30.10S
ALLIANCE       CLOUDY    50  42  74 SE16      30.11S
SIDNEY         CLOUDY    49  43  80 SE12      30.12F
WHITECLAY        N/A     48  42  80 SE6         N/A
BIG SPRINGS      N/A     52  47  83 SE10        N/A
$$

...OBSERVATIONS IN NORTH CENTRAL NEBRASKA...

CITY           SKY/WX    TMP DP  RH WIND       PRES   REMARKS
VALENTINE      CLEAR     46  38  73 CALM      30.16F
THEDFORD       CLEAR     48  41  77 S6        30.18F
AINSWORTH      CLEAR     42  37  83 S8        30.18F
O`NEILL        CLEAR     46  37  70 SW5       30.19F
ORD            PTCLDY    40  35  83 CALM      30.19F
BROKEN BOW     PTCLDY    41  38  89 CALM      30.19F
BROWNLEE         N/A     51  40  68 S9          N/A
BREWSTER         N/A     41  38  87 CALM        N/A
ROSE             N/A     47  38  71 E5          N/A
NEWPORT          N/A     41  36  81 S5          N/A
COMSTOCK         N/A     49  40  70 CALM        N/A
$$

...OBSERVATIONS IN SOUTHWEST NEBRASKA AND FAR NORTHEAST COLORADO...

CITY           SKY/WX    TMP DP  RH WIND       PRES   REMARKS
WRAY           CLOUDY    51  45  80 SE9       30.14F
IMPERIAL       CLOUDY    47  43  86 S7        30.15F
OGALLALA       CLOUDY    51  46  83 SE5       30.15S
NORTH PLATTE   PTCLDY    45  41  86 E8        30.17F
MCCOOK         CLOUDY    47  43  86 SE6       30.17F
LEXINGTON      PTCLDY    47  42  80 S3        30.19F
PAXTON           N/A     50  46  84 SE9         N/A
GOTHENBURG       N/A     47  38  72 CALM        N/A
CALLAWAY         N/A     44  40  87 S5          N/A
$$

...NORTH PLATTE AREA...

CITY           SKY/WX    TMP DP  RH WIND       PRES   REMARKS
AIRPORT        PTCLDY    45  41  86 E8        30.17F
$$

...SOME WEATHER OBSERVATIONS FROM AROUND THE REGION...

CITY           SKY/WX    TMP DP  RH WIND       PRES   REMARKS
DENVER         CLOUDY    47  44  90 SE16      30.05F
LARAMIE        CLOUDY    42  41  96 SE14      30.04F
CHEYENNE       FOG       43  42  97 SE15G28   30.07F VSB 1
SCOTTSBLUFF    CLOUDY    51  45  79 SE12      30.10S
RAPID CITY     CLOUDY    48  44  86 E5        30.10F
PIERRE         CLEAR     45  36  70 CALM      30.14S
WINNER         FAIR      52  34  50 SW9       30.16F
SIOUX FALLS    CLEAR     47  40  76 CALM      30.17R
OMAHA          PTCLDY    59  40  49 W5        30.20S
GRAND ISLAND   MOCLDY    50  41  71 CALM      30.21F
KANSAS CITY    PTCLDY    51  45  79 SW6       30.22F
WICHITA        MOCLDY    53  46  77 SE5       30.20R
HAYS           CLOUDY    50  41  71 CALM      30.21R
LIBERAL        CLOUDY    52  45  76 SE13      30.17R
GOODLAND       CLOUDY    49  46  90 SE9       30.15F
$$



USA.gov is the U.S. government's official web portal to all federal, state and local government web resources and services.